Time,TemperatureF,DewpointF,PressureIn,WindDirection,WindDirectionDegrees,WindSpeedMPH,WindSpeedGustMPH,Humidity,HourlyPrecipIn,Conditions,Clouds,dailyrainin,SoftwareType,DateUTC
2013-02-19 00:01:00,25.7,13.8,30.16,NW,307,0.0,0.0,60,0.00,,CLR,0.00,VWS V12.08,2013-02-19 05:01:00,
2013-02-19 00:11:00,25.6,13.7,30.16,NW,307,0.0,0.0,60,0.00,,CLR,0.00,VWS V12.08,2013-02-19 05:11:00,
2013-02-19 00:21:00,25.6,13.3,30.15,NW,307,0.0,0.0,59,0.00,,CLR,0.00,VWS V12.08,2013-02-19 05:21:00,
2013-02-19 00:31:00,25.6,13.7,30.14,NW,307,0.0,0.0,60,0.00,,CLR,0.00,VWS V12.08,2013-02-19 05:31:00,
2013-02-19 00:41:00,25.6,14.8,30.14,NW,307,0.0,0.0,63,0.00,,CLR,0.00,VWS V12.08,2013-02-19 05:41:00,
2013-02-19 00:51:00,25.6,14.4,30.14,NW,307,0.0,0.0,62,0.00,,CLR,0.00,VWS V12.08,2013-02-19 05:51:00,
2013-02-19 01:01:00,25.4,13.8,30.14,NW,307,0.0,0.0,61,0.00,,CLR,0.00,VWS V12.08,2013-02-19 06:01:00,
2013-02-19 01:11:00,25.4,13.8,30.14,NW,307,0.0,0.0,61,0.00,,CLR,0.00,VWS V12.08,2013-02-19 06:11:00,
2013-02-19 01:21:00,25.3,14.1,30.13,NW,307,0.0,0.0,62,0.00,,CLR,0.00,VWS V12.08,2013-02-19 06:21:00,
2013-02-19 01:31:00,25.3,14.1,30.13,NW,307,0.0,0.0,62,0.00,,CLR,0.00,VWS V12.08,2013-02-19 06:31:00,
2013-02-19 01:41:00,25.1,14.3,30.13,NW,307,0.0,0.0,63,0.00,,CLR,0.00,VWS V12.08,2013-02-19 06:41:00,
2013-02-19 01:51:00,24.8,13.6,30.12,NW,307,0.0,0.0,62,0.00,,CLR,0.00,VWS V12.08,2013-02-19 06:51:00,
2013-02-19 02:01:00,24.8,14.0,30.11,NW,307,0.0,0.0,63,0.00,,CLR,0.00,VWS V12.08,2013-02-19 07:01:00,
2013-02-19 02:11:00,24.7,14.3,30.11,NW,307,0.0,0.0,64,0.00,,CLR,0.00,VWS V12.08,2013-02-19 07:11:00,
2013-02-19 02:21:00,24.5,14.8,30.11,NW,307,0.0,0.0,66,0.00,,CLR,0.00,VWS V12.08,2013-02-19 07:21:00,
2013-02-19 02:31:00,24.2,14.1,30.10,NW,307,0.0,0.0,65,0.00,,CLR,0.00,VWS V12.08,2013-02-19 07:31:00,
2013-02-19 02:41:00,24.1,15.1,30.10,NW,307,0.0,0.0,68,0.00,,CLR,0.00,VWS V12.08,2013-02-19 07:41:00,
2013-02-19 02:51:00,23.8,14.8,30.10,NW,307,0.0,0.0,68,0.00,,CLR,0.00,VWS V12.08,2013-02-19 07:51:00,
2013-02-19 03:01:00,23.5,14.8,30.09,NW,307,0.0,0.0,69,0.00,,CLR,0.00,VWS V12.08,2013-02-19 08:01:00,
2013-02-19 03:11:00,23.5,14.8,30.09,NW,307,0.0,0.0,69,0.00,,CLR,0.00,VWS V12.08,2013-02-19 08:11:00,
2013-02-19 03:21:00,23.5,14.2,30.09,NW,307,0.0,0.0,67,0.00,,CLR,0.00,VWS V12.08,2013-02-19 08:21:00,
2013-02-19 03:31:00,23.2,14.6,30.08,NW,307,0.0,0.0,69,0.00,,CLR,0.00,VWS V12.08,2013-02-19 08:31:00,
2013-02-19 03:41:00,23.2,14.2,30.08,NW,307,0.0,0.0,68,0.00,,CLR,0.00,VWS V12.08,2013-02-19 08:41:00,
2013-02-19 03:51:00,23.0,14.7,30.09,NW,307,0.0,0.0,70,0.00,,CLR,0.00,VWS V12.08,2013-02-19 08:51:00,
2013-02-19 04:01:00,22.9,14.6,30.08,NW,307,0.0,0.0,70,0.00,,CLR,0.00,VWS V12.08,2013-02-19 09:01:00,
2013-02-19 04:11:00,22.7,14.7,30.08,NW,307,0.0,0.0,71,0.00,,CLR,0.00,VWS V12.08,2013-02-19 09:11:00,
2013-02-19 04:21:00,22.5,14.5,30.08,NW,307,0.0,0.0,71,0.00,,CLR,0.00,VWS V12.08,2013-02-19 09:21:00,
2013-02-19 04:31:00,22.4,13.8,30.07,NW,307,0.0,0.0,69,0.00,,CLR,0.00,VWS V12.08,2013-02-19 09:31:00,
2013-02-19 04:41:00,22.1,14.8,30.07,NW,307,0.0,0.0,73,0.00,,CLR,0.00,VWS V12.08,2013-02-19 09:41:00,
2013-02-19 04:51:00,21.6,14.3,30.07,NW,307,0.0,0.0,73,0.00,,CLR,0.00,VWS V12.08,2013-02-19 09:51:00,
2013-02-19 05:01:00,21.3,14.3,30.05,NW,307,0.0,0.0,74,0.00,,CLR,0.00,VWS V12.08,2013-02-19 10:01:00,
2013-02-19 05:11:00,21.1,14.7,30.05,NW,307,0.0,0.0,76,0.00,,CLR,0.00,VWS V12.08,2013-02-19 10:11:00,
2013-02-19 05:21:00,21.1,14.4,30.05,NW,307,0.0,0.0,75,0.00,,CLR,0.00,VWS V12.08,2013-02-19 10:21:00,
2013-02-19 05:31:00,21.4,14.4,30.05,NW,307,0.0,0.0,74,0.00,,CLR,0.00,VWS V12.08,2013-02-19 10:31:00,
2013-02-19 05:41:00,21.4,14.7,30.05,NW,307,0.0,0.0,75,0.00,,CLR,0.00,VWS V12.08,2013-02-19 10:41:00,
2013-02-19 05:51:00,21.4,14.7,30.05,NW,307,0.0,0.0,75,0.00,,CLR,0.00,VWS V12.08,2013-02-19 10:51:00,
2013-02-19 06:01:00,21.1,14.4,30.04,NW,307,0.0,0.0,75,0.00,,CLR,0.00,VWS V12.08,2013-02-19 11:01:00,
2013-02-19 06:11:00,20.8,14.4,30.04,NW,307,0.0,0.0,76,0.00,,CLR,0.00,VWS V12.08,2013-02-19 11:11:00,
2013-02-19 06:21:00,20.6,14.6,30.03,NW,307,0.0,0.0,77,0.00,,CLR,0.00,VWS V12.08,2013-02-19 11:21:00,
2013-02-19 06:31:00,20.5,14.4,30.02,NW,307,0.0,0.0,77,0.00,,CLR,0.00,VWS V12.08,2013-02-19 11:31:00,
2013-02-19 06:41:00,20.6,14.2,30.02,NW,307,0.0,0.0,76,0.00,,CLR,0.00,VWS V12.08,2013-02-19 11:41:00,
2013-02-19 06:51:00,20.8,14.7,30.02,NW,307,0.0,0.0,77,0.00,,CLR,0.00,VWS V12.08,2013-02-19 11:51:00,
2013-02-19 07:01:00,21.0,14.9,30.02,NW,307,0.0,0.0,77,0.00,,CLR,0.00,VWS V12.08,2013-02-19 12:01:00,
2013-02-19 07:11:00,21.3,14.9,30.02,NW,307,0.0,0.0,76,0.00,,CLR,0.00,VWS V12.08,2013-02-19 12:11:00,
2013-02-19 07:21:00,21.8,15.1,30.02,West,265,0.0,0.0,75,0.00,,CLR,0.00,VWS V12.08,2013-02-19 12:21:00,
2013-02-19 07:31:00,22.4,16.3,30.02,West,265,0.0,1.0,77,0.00,,CLR,0.00,VWS V12.08,2013-02-19 12:31:00,
2013-02-19 07:41:00,23.2,16.2,30.02,West,265,0.0,0.0,74,0.00,,CLR,0.00,VWS V12.08,2013-02-19 12:41:00,
2013-02-19 07:51:00,23.8,16.1,30.02,West,265,0.0,0.0,72,0.00,,CLR,0.00,VWS V12.08,2013-02-19 12:51:00,
2013-02-19 08:01:00,24.5,16.8,30.01,West,265,1.0,2.0,72,0.00,,CLR,0.00,VWS V12.08,2013-02-19 13:01:00,
2013-02-19 08:11:00,25.0,17.3,30.01,West,265,0.0,2.0,72,0.00,,CLR,0.00,VWS V12.08,2013-02-19 13:11:00,
2013-02-19 08:21:00,25.4,17.6,30.01,West,266,0.0,3.0,72,0.00,,CLR,0.00,VWS V12.08,2013-02-19 13:21:00,
2013-02-19 08:31:00,26.1,18.6,30.00,West,266,0.0,1.0,73,0.00,,CLR,0.00,VWS V12.08,2013-02-19 13:31:00,
2013-02-19 08:41:00,26.7,18.9,30.00,West,266,0.0,1.0,72,0.00,,CLR,0.00,VWS V12.08,2013-02-19 13:41:00,
2013-02-19 08:51:00,27.6,19.8,29.99,West,266,0.0,2.0,72,0.00,,CLR,0.00,VWS V12.08,2013-02-19 13:51:00,
2013-02-19 09:01:00,28.8,20.9,29.97,West,266,0.0,2.0,72,0.00,,CLR,0.00,VWS V12.08,2013-02-19 14:01:00,
2013-02-19 09:11:00,29.8,21.9,29.97,West,266,0.0,3.0,72,0.00,,CLR,0.00,VWS V12.08,2013-02-19 14:11:00,
2013-02-19 09:21:00,31.3,22.3,29.96,West,268,0.0,2.0,69,0.00,,CLR,0.00,VWS V12.08,2013-02-19 14:21:00,
2013-02-19 09:31:00,32.5,23.5,29.95,North,11,0.0,3.0,69,0.00,,CLR,0.00,VWS V12.08,2013-02-19 14:31:00,
2013-02-19 09:41:00,33.8,24.4,29.95,North,11,2.0,2.0,68,0.00,,CLR,0.00,VWS V12.08,2013-02-19 14:41:00,
2013-02-19 09:51:00,35.8,25.6,29.95,SSE,167,4.0,6.0,66,0.00,,CLR,0.00,VWS V12.08,2013-02-19 14:51:00,
2013-02-19 10:01:00,38.9,26.2,29.94,SSW,196,4.0,16.0,60,0.00,,CLR,0.00,VWS V12.08,2013-02-19 15:01:00,
2013-02-19 10:11:00,40.5,26.0,29.94,ESE,123,3.0,13.0,56,0.00,,CLR,0.00,VWS V12.08,2013-02-19 15:11:00,
2013-02-19 10:21:00,41.9,26.9,29.93,SSE,147,3.0,17.0,55,0.00,,CLR,0.00,VWS V12.08,2013-02-19 15:21:00,
2013-02-19 10:31:00,42.5,26.6,29.92,SE,129,5.0,15.0,53,0.00,,CLR,0.00,VWS V12.08,2013-02-19 15:31:00,
2013-02-19 10:41:00,43.1,26.7,29.92,South,186,4.0,16.0,52,0.00,,CLR,0.00,VWS V12.08,2013-02-19 15:41:00,
2013-02-19 10:51:00,44.3,26.4,29.92,SW,214,6.0,16.0,49,0.00,,CLR,0.00,VWS V12.08,2013-02-19 15:51:00,
2013-02-19 11:01:00,45.2,27.2,29.91,SW,221,2.0,13.0,49,0.00,,FEW120,0.00,VWS V12.08,2013-02-19 16:01:00,
2013-02-19 11:11:00,45.4,27.4,29.91,SSW,198,6.0,14.0,49,0.00,,FEW120,0.00,VWS V12.08,2013-02-19 16:11:00,
2013-02-19 11:21:00,45.2,27.7,29.91,SW,228,5.0,17.0,50,0.00,,FEW120,0.00,VWS V12.08,2013-02-19 16:21:00,
2013-02-19 11:31:00,45.1,28.5,29.91,WSW,248,2.0,8.0,52,0.00,,FEW120,0.00,VWS V12.08,2013-02-19 16:31:00,
2013-02-19 11:41:00,43.2,33.4,29.91,WSW,248,2.0,2.0,68,0.00,,FEW120,0.00,VWS V12.08,2013-02-19 16:41:00,
2013-02-19 11:51:00,40.6,34.3,29.91,WSW,248,2.0,2.0,78,0.00,,FEW120,0.00,VWS V12.08,2013-02-19 16:51:00,
2013-02-19 12:01:00,39.6,34.6,29.90,WSW,248,2.0,2.0,82,0.00,,-RA,0.00,VWS V12.08,2013-02-19 17:01:00,
2013-02-19 12:11:00,39.1,35.0,29.90,WSW,248,2.0,2.0,85,0.01,,-RA,0.01,VWS V12.08,2013-02-19 17:11:00,
2013-02-19 12:21:00,38.8,35.3,29.89,WSW,248,2.0,2.0,87,0.02,,-RA,0.02,VWS V12.08,2013-02-19 17:21:00,
2013-02-19 12:31:00,38.6,35.6,29.87,WSW,248,2.0,2.0,89,0.03,,-RA,0.03,VWS V12.08,2013-02-19 17:31:00,
2013-02-19 12:41:00,38.8,36.1,29.87,WSW,248,2.0,2.0,90,0.04,,-RA,0.04,VWS V12.08,2013-02-19 17:41:00,
2013-02-19 12:51:00,38.8,36.7,29.85,WSW,248,2.0,2.0,92,0.05,,-RA,0.05,VWS V12.08,2013-02-19 17:51:00,
2013-02-19 13:01:00,38.9,36.5,29.83,WSW,248,2.0,2.0,91,0.05,,-RA,0.05,VWS V12.08,2013-02-19 18:01:00,
2013-02-19 13:11:00,39.1,37.0,29.83,WSW,248,2.0,2.0,92,0.07,,-RA,0.07,VWS V12.08,2013-02-19 18:11:00,
2013-02-19 13:21:00,39.1,37.2,29.83,WSW,248,2.0,2.0,93,0.06,,-RA,0.07,VWS V12.08,2013-02-19 18:21:00,
2013-02-19 13:31:00,39.2,37.3,29.82,WSW,248,2.0,2.0,93,0.06,,-RA,0.08,VWS V12.08,2013-02-19 18:31:00,
2013-02-19 13:41:00,39.2,37.3,29.82,WSW,248,2.0,2.0,93,0.05,,-RA,0.08,VWS V12.08,2013-02-19 18:41:00,
2013-02-19 13:51:00,39.3,37.7,29.81,WSW,248,2.0,2.0,94,0.05,,-RA,0.09,VWS V12.08,2013-02-19 18:51:00,
2013-02-19 14:01:00,39.6,38.3,29.79,WSW,248,2.0,2.0,95,0.05,,-RA,0.10,VWS V12.08,2013-02-19 19:01:00,
2013-02-19 14:11:00,39.6,38.3,29.79,WSW,248,2.0,2.0,95,0.05,,-RA,0.10,VWS V12.08,2013-02-19 19:11:00,
2013-02-19 14:21:00,39.8,38.5,29.78,WSW,248,2.0,2.0,95,0.04,,-RA,0.11,VWS V12.08,2013-02-19 19:21:00,
2013-02-19 14:31:00,39.8,38.5,29.76,WSW,248,2.0,2.0,95,0.04,,-RA,0.11,VWS V12.08,2013-02-19 19:31:00,
2013-02-19 14:41:00,39.9,38.6,29.76,WSW,248,2.0,2.0,95,0.04,,-RA,0.12,VWS V12.08,2013-02-19 19:41:00,
2013-02-19 14:51:00,40.1,39.0,29.75,WSW,248,2.0,2.0,96,0.05,,-RA,0.13,VWS V12.08,2013-02-19 19:51:00,
2013-02-19 15:01:00,40.2,39.2,29.74,WSW,248,2.0,2.0,96,0.05,,-RA,0.14,VWS V12.08,2013-02-19 20:01:00,
2013-02-19 15:11:00,40.2,39.2,29.74,WSW,248,2.0,2.0,96,0.05,,-RA,0.15,VWS V12.08,2013-02-19 20:11:00,
2013-02-19 15:21:00,40.3,39.2,29.73,WSW,248,2.0,2.0,96,0.05,,-RA,0.15,VWS V12.08,2013-02-19 20:21:00,
2013-02-19 15:31:00,40.3,39.5,29.72,WSW,248,2.0,2.0,97,0.05,,-RA,0.16,VWS V12.08,2013-02-19 20:31:00,
2013-02-19 15:41:00,40.5,39.7,29.72,WSW,248,2.0,2.0,97,0.06,,-RA,0.17,VWS V12.08,2013-02-19 20:41:00,
2013-02-19 15:51:00,40.5,40.0,29.71,WSW,248,2.0,2.0,98,0.06,,-RA,0.18,VWS V12.08,2013-02-19 20:51:00,
2013-02-19 16:01:00,40.6,40.1,29.70,WSW,248,2.0,2.0,98,0.06,,-RA,0.19,VWS V12.08,2013-02-19 21:01:00,
2013-02-19 16:11:00,40.6,40.1,29.70,WSW,248,2.0,2.0,98,0.05,,-RA,0.19,VWS V12.08,2013-02-19 21:11:00,
2013-02-19 16:21:00,40.5,40.2,29.70,WSW,248,2.0,2.0,99,0.05,,-RA,0.20,VWS V12.08,2013-02-19 21:21:00,
2013-02-19 16:31:00,40.8,40.5,29.70,WSW,248,2.0,2.0,99,0.06,,-RA,0.21,VWS V12.08,2013-02-19 21:31:00,
2013-02-19 16:41:00,40.9,40.6,29.70,WSW,248,2.0,2.0,99,0.05,,-RA,0.21,VWS V12.08,2013-02-19 21:41:00,
2013-02-19 16:51:00,41.1,40.8,29.70,WSW,248,2.0,2.0,99,0.06,,-RA,0.23,VWS V12.08,2013-02-19 21:51:00,
2013-02-19 17:01:00,41.2,40.9,29.69,WSW,248,2.0,2.0,99,0.06,,-RA,0.24,VWS V12.08,2013-02-19 22:01:00,
2013-02-19 17:11:00,41.3,41.0,29.69,WSW,248,2.0,2.0,99,0.06,,-RA,0.25,VWS V12.08,2013-02-19 22:11:00,
2013-02-19 17:21:00,41.6,41.3,29.68,WSW,248,2.0,2.0,99,0.06,,-RA,0.25,VWS V12.08,2013-02-19 22:21:00,
2013-02-19 17:31:00,41.8,41.8,29.67,WSW,248,2.0,2.0,100,0.06,,-RA,0.26,VWS V12.08,2013-02-19 22:31:00,
2013-02-19 17:41:00,41.6,41.6,29.67,WSW,248,2.0,2.0,100,0.05,,-RA,0.26,VWS V12.08,2013-02-19 22:41:00,
2013-02-19 17:51:00,41.6,41.6,29.67,WSW,248,2.0,2.0,100,0.05,,-RA,0.26,VWS V12.08,2013-02-19 22:51:00,
2013-02-19 18:01:00,41.3,41.3,29.68,WSW,248,2.0,2.0,100,0.03,,-RA,0.26,VWS V12.08,2013-02-19 23:01:00,
2013-02-19 18:11:00,41.2,41.2,29.68,WSW,248,2.0,2.0,100,0.02,,-RA,0.26,VWS V12.08,2013-02-19 23:11:00,
2013-02-19 18:21:00,41.2,41.2,29.67,WSW,248,2.0,2.0,100,0.01,,-RA,0.26,VWS V12.08,2013-02-19 23:21:00,
2013-02-19 18:31:00,40.9,40.9,29.66,WSW,248,2.0,2.0,100,0.01,,-RA,0.26,VWS V12.08,2013-02-19 23:31:00,
2013-02-19 18:41:00,40.8,40.8,29.66,WSW,248,2.0,2.0,100,0.00,,-RA,0.26,VWS V12.08,2013-02-19 23:41:00,
2013-02-19 18:51:00,40.9,40.9,29.67,WSW,248,2.0,2.0,100,0.00,,-RA,0.26,VWS V12.08,2013-02-19 23:51:00,
2013-02-19 19:01:00,41.1,41.1,29.67,WSW,248,2.0,2.0,100,0.00,,-RA,0.26,VWS V12.08,2013-02-20 00:01:00,
2013-02-19 19:11:00,41.3,41.3,29.67,WSW,248,2.0,2.0,100,0.00,,-RA,0.26,VWS V12.08,2013-02-20 00:11:00,
2013-02-19 19:21:00,41.5,41.5,29.67,WSW,248,2.0,2.0,100,0.01,,-RA,0.27,VWS V12.08,2013-02-20 00:21:00,
2013-02-19 19:31:00,41.5,41.5,29.67,WSW,248,2.0,2.0,100,0.02,,-RA,0.28,VWS V12.08,2013-02-20 00:31:00,
2013-02-19 19:41:00,41.2,41.2,29.67,WSW,248,2.0,2.0,100,0.02,,-RA,0.28,VWS V12.08,2013-02-20 00:41:00,
2013-02-19 19:51:00,40.8,40.8,29.67,WSW,248,2.0,2.0,100,0.02,,-RA,0.28,VWS V12.08,2013-02-20 00:51:00,
2013-02-19 20:01:00,40.3,40.3,29.67,WSW,248,2.0,2.0,100,0.02,,-RA,0.28,VWS V12.08,2013-02-20 01:01:00,
2013-02-19 20:11:00,39.9,39.9,29.67,WSW,248,2.0,2.0,100,0.02,,-RA,0.28,VWS V12.08,2013-02-20 01:11:00,
2013-02-19 20:21:00,39.6,39.3,29.67,WSW,248,2.0,2.0,99,0.02,,-RA,0.28,VWS V12.08,2013-02-20 01:21:00,
2013-02-19 20:31:00,39.5,39.2,29.68,WSW,248,2.0,2.0,99,0.01,,-RA,0.28,VWS V12.08,2013-02-20 01:31:00,
2013-02-19 20:41:00,39.3,39.0,29.68,WSW,248,2.0,2.0,99,0.00,,-RA,0.28,VWS V12.08,2013-02-20 01:41:00,
2013-02-19 20:51:00,39.2,38.4,29.69,WSW,248,2.0,2.0,97,0.00,,-RA,0.28,VWS V12.08,2013-02-20 01:51:00,
2013-02-19 21:01:00,38.8,37.8,29.69,WSW,248,2.0,2.0,96,0.00,,OVC100,0.28,VWS V12.08,2013-02-20 02:01:00,
2013-02-19 21:11:00,38.3,37.0,29.69,WSW,248,2.0,2.0,95,0.00,,OVC100,0.28,VWS V12.08,2013-02-20 02:11:00,
2013-02-19 21:21:00,37.9,36.1,29.70,WSW,248,2.0,2.0,93,0.00,,OVC100,0.28,VWS V12.08,2013-02-20 02:21:00,
2013-02-19 21:31:00,37.8,35.4,29.70,WSW,248,2.0,2.0,91,0.00,,OVC100,0.28,VWS V12.08,2013-02-20 02:31:00,
2013-02-19 21:41:00,37.3,34.6,29.70,WSW,248,2.0,2.0,90,0.00,,OVC100,0.28,VWS V12.08,2013-02-20 02:41:00,
2013-02-19 21:51:00,37.0,34.1,29.70,WSW,248,2.0,2.0,89,0.00,,OVC100,0.28,VWS V12.08,2013-02-20 02:51:00,
2013-02-19 22:01:00,36.8,33.3,29.71,WSW,248,2.0,2.0,87,0.00,,BKN110,0.28,VWS V12.08,2013-02-20 03:01:00,
2013-02-19 22:11:00,36.3,32.2,29.71,WSW,248,2.0,2.0,85,0.00,,BKN110,0.28,VWS V12.08,2013-02-20 03:11:00,
2013-02-19 22:21:00,35.9,31.8,29.71,WSW,248,2.0,2.0,85,0.00,,BKN110,0.28,VWS V12.08,2013-02-20 03:21:00,
2013-02-19 22:31:00,35.6,31.5,29.71,WSW,248,2.0,2.0,85,0.00,,BKN110,0.28,VWS V12.08,2013-02-20 03:31:00,
2013-02-19 22:41:00,35.0,31.5,29.71,WSW,248,2.0,2.0,87,0.00,,BKN110,0.28,VWS V12.08,2013-02-20 03:41:00,
2013-02-19 22:51:00,34.6,30.3,29.71,WSW,248,2.0,2.0,84,0.00,,BKN110,0.28,VWS V12.08,2013-02-20 03:51:00,
2013-02-19 23:01:00,34.1,29.5,29.72,WSW,248,2.0,2.0,83,0.00,,CLR,0.28,VWS V12.08,2013-02-20 04:01:00,
2013-02-19 23:11:00,33.7,29.1,29.72,WSW,248,2.0,2.0,83,0.00,,CLR,0.28,VWS V12.08,2013-02-20 04:11:00,
2013-02-19 23:21:00,33.5,28.6,29.72,WSW,248,2.0,2.0,82,0.00,,CLR,0.28,VWS V12.08,2013-02-20 04:21:00,
2013-02-19 23:31:00,32.9,28.6,29.72,WSW,248,2.0,2.0,84,0.00,,CLR,0.28,VWS V12.08,2013-02-20 04:31:00,
2013-02-19 23:41:00,32.5,27.9,29.72,WSW,248,2.0,2.0,83,0.00,,CLR,0.28,VWS V12.08,2013-02-20 04:41:00,
2013-02-19 23:51:00,32.2,27.9,29.72,WSW,248,2.0,2.0,84,0.00,,CLR,0.28,VWS V12.08,2013-02-20 04:51:00,